Regional Weather Roundup
Issued by NWS Goodland, KS

Home | Current Version | Previous Version | Graphics & Text | Print | Product List | Glossary On
Versions: 1 2 3 4 5 6 7 8 9 10 11 12 13 14 15 16 17 18 19 20 21 22 23 24 25 26 27 28 29 30 31 32 33 34 35 36 37 38 39 40 41 42 43 44 45 46 47 48 49 50
000
ASUS43 KGLD 242259
RWRGLD

GOODLAND FORECAST AREA HOURLY WEATHER ROUNDUP
NATIONAL WEATHER SERVICE GOODLAND KS
500 PM MDT TUE MAY 24 2016

...OFFICIAL OBSERVATIONS...

CITY           SKY/WX    TMP DP  RH WIND       PRES   REMARKS
GOODLAND KS    MOSUNNY   77  60  55 SE13G22   29.81F
HILL CITY KS   CLOUDY    75  65  70 SE13      29.80F
IMPERIAL NEB   MOSUNNY   75  59  57 S16       29.82F
MCCOOK NEB     PTSUNNY   75  60  59 SE15G23   29.82F
AKRON CO       CLOUDY    69  53  56 SE17      29.82F
BURLINGTON CO  SUNNY     80  52  37 S13G23    29.82F
LIMON CO       SUNNY     75  38  26 S23G37    29.84F
$$

...UNOFFICIAL OBSERVATIONS...

CITY           SKY/WX    TMP DP  RH WIND       PRES   REMARKS
COLBY KS       MOSUNNY   77  66  69 E17       29.82F
GOVE KS          N/A     72  32  23 MISG        N/A
LENORA KS        N/A     75  32  20 MISG        N/A
NORTON KS      CLOUDY    75  55  50 E14       29.83F
SHARON SPRINGS   N/A     81  67  61 E9          N/A
TRIBUNE KS     SUNNY     88  45  22 MISG      29.80
KIT CARSON CO    N/A     81  49  32 MISG        N/A
YUMA CO          N/A     73  56  54 SE12        N/A
$$




USA.gov is the U.S. government's official web portal to all federal, state and local government web resources and services.